Location: Miami, Florida
(25.6830°N, 80.1700°W)
Time: 19:42:29
(UTC-04:00)

Hubble Space Telescope - Pass Details

Date: 16 November 2017
Orbit: 537 x 541 km, 28.5° (Epoch: 22 November)

Event Time Altitude Azimuth Distance (km) Brightness Sun altitude
Exits shadow 05:47:18 36° 165° (SSE) 849 1.9 -25.2°
Maximum altitude 05:47:30 36° 158° (SSE) 844 1.9 -25.1°
Drops below altitude 10° 05:51:19 10° 90° (E) 1,780 4.5 -24.3°
Sets 05:53:41 0° 82° (E) 2,673 5.5 -23.8°
